Flag for Turkey Weather past 2 weeks in Samsun, Turkey

Now
79 °F

Partly cloudy.


Feels Like: 82 °F
Forecast: 71 / 87 °F
Wind: 21 mph from Northwest

Location: Samsun / Carsamba

Current Time: Aug 2, 2015 at 5:41:35 AM

Latest Report: Aug 2, 2015 at 4:50 AM


Visibility: N/A

Pressure: 29.95 "Hg

Humidity: 79%

Dew point: 72 °F

Location of SamsunLocation

Historic Weather in Samsun — Graph

°F

Samsun temperature yesterday

Maximum temperature yesterday: 88 °F (at 12:50 PM)
Minimum temperature yesterday: 73 °F (at 3:50 AM)
Average temperature yesterday: 81 °F

Past Weeks' High & Low Weather Summary

 TemperatureHumidityPressure
High90 °F (Jul 29, 12:50 PM)100% (Jul 20, 3:50 AM)30.07 "Hg (Jul 20, 3:50 AM)
Low61 °F (Jul 18, 3:50 AM)42% (Jul 19, 12:50 PM)29.68 "Hg (Jul 28, 4:50 AM)
Average75 °F77%29.85 "Hg
* Reported Jul 18 3:50 AM — Aug 2 3:50 AM, Samsun, Weather by CustomWeather, © 2015

Note: Actual official high and low records may vary slightly from our data, if they occured in-between our weather recording intervals... More about our weather records

Advertising

Samsun weather history for previous 24 hours

 ConditionsComfort  
Time TempWeatherWind HumidityBarometerVisibility
3:50 AM
Sun, Aug 2
79 °FPartly cloudy.17 mph79%29.95 "HgN/A
2:50 AM79 °FPartly cloudy.18 mph79%29.95 "HgN/A
1:50 AM79 °FPartly cloudy.12 mph84%29.95 "HgN/A
12:50 AM75 °FPartly cloudy.20 mph74%29.92 "HgN/A
11:50 PM
Sat, Aug 1
75 °FSprinkles. Passing clouds.16 mph78%29.95 "HgN/A
10:50 PM79 °FPartly cloudy.21 mph84%29.92 "HgN/A
9:50 PM79 °FPartly cloudy.21 mph84%29.92 "HgN/A
8:50 PM81 °FBroken clouds.16 mph79%29.95 "HgN/A
7:50 PM81 °FBroken clouds.18 mph79%29.89 "HgN/A
6:50 PM81 °FBroken clouds.20 mph79%29.86 "HgN/A
5:50 PM82 °FBroken clouds.22 mph74%29.86 "HgN/A
4:50 PM82 °FBroken clouds.21 mph70%29.86 "HgN/A
3:50 PM86 °FScattered clouds.21 mph62%29.83 "HgN/A
2:50 PM86 °FScattered clouds.16 mph62%29.83 "HgN/A
1:50 PM88 °FScattered clouds.14 mph55%29.80 "HgN/A
12:50 PM88 °FPassing clouds.12 mph55%29.80 "HgN/A
11:50 AM86 °FPassing clouds.16 mph55%29.80 "HgN/A
10:50 AM86 °FPassing clouds.16 mph55%29.80 "HgN/A
9:50 AM84 °FPassing clouds.15 mph55%29.80 "HgN/A
8:50 AM84 °FPassing clouds.6 mph48%29.77 "HgN/A
7:50 AM81 °FPassing clouds.3 mph66%29.77 "HgN/A
6:50 AM75 °FScattered clouds.3 mph78%29.74 "HgN/A
5:50 AM73 °FPassing clouds.2 mph83%29.74 "HgN/A
Weather by CustomWeather, © 2015

See weather overviewHow to use our weather pages